EW5975 Weather Reports


Display with metric or nautical units.
time (UTC)temp
F
wind
direction
speed
MPH
gust
MPH
rain 1hr
in
rain 24hr
in
rain mn
in
humidity
%
barometer
mb
20260504223017 55 0.0 0.0 0.00 0.22 0.00 91 1013.5
20260504222017 55 0.0 0.0 0.00 0.22 0.00 91 1013.7
20260504221017 55 0.0 1.0 0.00 0.22 0.00 91 1013.8
20260504220016 55 0.0 1.0 0.00 0.22 0.22 91 1013.8
20260504215038 55 0.0 1.0 0.00 0.22 0.22 91 1014.0
20260504214016 55 0.0 0.0 0.00 0.22 0.22 91 1014.3
20260504213037 55 0.0 0.0 0.02 0.22 0.22 90 1014.4
20260504212016 55 0.0 0.0 0.05 0.22 0.22 90 1014.5
20260504211018 55 0.0 0.0 0.09 0.22 0.22 90 1014.6
20260504210016 55 0.0 0.0 0.09 0.22 0.22 90 1014.7
20260504205038 55 0.0 0.0 0.09 0.22 0.22 90 1014.8
20260504204036 55 0.0 0.0 0.09 0.22 0.22 90 1014.9
20260504203019 55 0.0 0.0 0.09 0.20 0.20 90 1015.0
20260504202019 56 0.0 0.0 0.06 0.17 0.17 90 1015.0
20260504201016 56 0.0 1.0 0.03 0.13 0.13 89 1015.1
20260504200118 56 0.0 0.0 0.04 0.13 0.13 89 1015.0
20260504195016 57 0.0 0.0 0.04 0.13 0.13 89 1015.0
20260504194017 57 0.0 0.0 0.04 0.13 0.13 89 1015.0
20260504193017 57 0.0 0.0 0.03 0.12 0.12 89 1014.9
20260504192016 57 0.0 0.0 0.03 0.12 0.12 89 1015.1
20260504191036 58 0.0 2.0 0.02 0.10 0.10 89 1014.9
20260504190016 58 0.0 0.0 0.01 0.09 0.09 89 1014.7
20260504185016 58 0.0 0.0 0.02 0.09 0.09 89 1014.8
20260504184036 58 0.0 0.0 0.06 0.09 0.09 89 1014.7
20260504183016 58 0.0 0.0 0.06 0.09 0.09 88 1014.7
20260504182016 58 0.0 0.0 0.06 0.09 0.09 88 1014.6
20260504181017 58 0.0 0.0 0.06 0.09 0.09 88 1014.6
20260504180016 59 0.0 0.0 0.07 0.09 0.09 88 1014.7
20260504175017 59 0.0 0.0 0.06 0.08 0.08 88 1014.6
20260504174036 59 0.0 0.0 0.02 0.04 0.04 88 1014.7
20260504173016 59 0.0 0.0 0.02 0.03 0.03 87 1015.1
20260504172056 59 0.0 0.0 0.02 0.03 0.03 87 1015.1
20260504171016 59 0.0 2.0 0.02 0.02 0.02 87 1014.8
20260504151016 62 113 2.0 5.0 0.00 0.00 0.00 80 1015.2
20260504141017 64 135 2.0 6.0 0.00 0.00 0.00 75 1015.0
20260504081036 57 0.0 0.0 0.00 0.00 0.00 80 1016.7
20260504045056 55 0.0 0.0 0.00 0.00 0.00 81 1016.2
20260504044016 55 0.0 0.0 0.00 0.00 0.00 81 1016.1
20260504043016 55 0.0 0.0 0.00 0.00 0.00 80 1016.3
20260504042056 55 0.0 0.0 0.00 0.00 0.00 80 1016.3
20260504041016 55 0.0 0.0 0.00 0.00 0.00 80 1016.6
20260504040016 55 0.0 0.0 0.00 0.00 0.00 79 1016.7
20260504035016 55 0.0 1.0 0.00 0.00 0.00 79 1016.8
20260504034015 55 0.0 0.0 0.00 0.00 0.00 78 1016.8
20260504033016 55 0.0 1.0 0.00 0.00 0.00 77 1016.7
20260504032016 55 0.0 1.0 0.00 0.00 0.00 77 1016.7
20260504031016 55 0.0 1.0 0.00 0.00 0.00 76 1016.3
20260504030057 55 0.0 0.0 0.00 0.00 0.00 76 1016.3
20260504025016 55 0.0 1.0 0.00 0.00 0.00 76 1016.2
20260504024037 55 0.0 0.0 0.00 0.00 0.00 74 1016.2
20260504023015 55 0.0 0.0 0.00 0.00 0.00 74 1016.5
20260504022016 54 0.0 0.0 0.00 0.00 0.00 74 1016.6
20260504021015 54 0.0 0.0 0.00 0.00 0.00 74 1016.7
20260504020017 54 0.0 0.0 0.00 0.00 0.00 75 1016.6
20260504015015 54 0.0 1.0 0.00 0.00 0.00 75 1016.4
20260504014017 54 0.0 0.0 0.00 0.00 0.00 74 1016.3
20260504013019 54 0.0 0.0 0.00 0.00 0.00 74 1016.3
20260504012039 54 0.0 0.0 0.00 0.00 0.00 74 1016.4
20260504011019 54 0.0 1.0 0.00 0.00 0.00 74 1016.6
20260504010019 54 0.0 0.0 0.00 0.00 0.00 74 1016.7
20260504005017 54 0.0 0.0 0.00 0.00 0.00 75 1016.7
20260504004017 54 0.0 0.0 0.00 0.00 0.00 74 1016.8
20260504003037 54 0.0 0.0 0.00 0.00 0.00 74 1016.9
20260504002017 55 0.0 0.0 0.00 0.00 0.00 75 1017.0
20260504001017 55 0.0 0.0 0.00 0.00 0.00 75 1017.1
20260504000017 55 0.0 0.0 0.00 0.00 0.00 76 1017.1
20260503235017 55 0.0 0.0 0.00 0.00 0.00 75 1017.4
20260503234037 55 0.0 0.0 0.00 0.00 0.00 74 1017.4
20260503233017 55 0.0 0.0 0.00 0.00 0.00 74 1017.5
20260503232017 55 0.0 0.0 0.00 0.00 0.00 72 1017.6
20260503231017 55 0.0 0.0 0.00 0.00 0.00 72 1017.5
20260503230017 55 0.0 0.0 0.00 0.00 0.00 72 1017.6
20260503225017 55 0.0 0.0 0.00 0.00 0.00 72 1017.6
20260503224017 55 0.0 0.0 0.00 0.00 0.00 72 1017.6